• In Hungary
  • List of Countries
  • For 7 days
  • Water Temperature
  • Satellite Maps
  • Weather Map
  • News
  • Weather Widgets
  • user-avatar
    Login

    Hourly Weather Alakaevka

    Today, 23 September, Sunday

    Time Temperature Precipitation Wind Pressure Humidity
    00:00 +16°C° 0 mm 1 mps 753 mmHg 87%
    01:00 +16°C° 0 mm 1 mps 753 mmHg 88%
    02:00 +15°C° 0 mm 1 mps 753 mmHg 89%
    03:00 +15°C° 0 mm 2 mps 753 mmHg 89%
    04:00 +15°C° 0 mm 2 mps 753 mmHg 90%
    05:00 +15°C° 0 mm 2 mps 753 mmHg 90%
    06:00 +15°C° 0 mm 2 mps 753 mmHg 90%
    07:00 +17°C° 0 mm 2 mps 753 mmHg 83%
    08:00 +18°C° 0 mm 2 mps 753 mmHg 75%
    09:00 +20°C° 0 mm 2 mps 753 mmHg 68%
    10:00 +22°C° 0 mm 3 mps 752 mmHg 63%
    11:00 +24°C° 0 mm 3 mps 752 mmHg 59%
    12:00 +25°C° 0 mm 3 mps 752 mmHg 55%
    13:00 +25°C° 0 mm 4 mps 751 mmHg 54%
    14:00 +25°C° 0 mm 4 mps 751 mmHg 53%
    15:00 +25°C° 0 mm 4 mps 751 mmHg 53%
    16:00 +24°C° 0 mm 3 mps 751 mmHg 57%
    17:00 +21°C° 0 mm 3 mps 750 mmHg 62%
    18:00 +19°C° 0 mm 3 mps 750 mmHg 66%
    19:00 +19°C° 0 mm 3 mps 750 mmHg 65%
    20:00 +18°C° 0 mm 3 mps 750 mmHg 64%
    21:00 +17°C° 0 mm 3 mps 750 mmHg 62%
    22:00 +17°C° 0 mm 3 mps 749 mmHg 58%
    23:00 +15°C° 0 mm 4 mps 749 mmHg 54%

    Tomorrow, 24 September, Monday

    Time Temperature Precipitation Wind Pressure Humidity
    00:00 +15°C° 0 mm 4 mps 749 mmHg 51%
    01:00 +14°C° 0 mm 4 mps 748 mmHg 47%
    02:00 +14°C° 0 mm 4 mps 748 mmHg 44%
    03:00 +14°C° 0 mm 4 mps 748 mmHg 40%
    04:00 +14°C° 0 mm 5 mps 747 mmHg 42%
    05:00 +14°C° 0 mm 5 mps 747 mmHg 43%
    06:00 +13°C° 0 mm 5 mps 746 mmHg 44%
    07:00 +15°C° 0 mm 6 mps 746 mmHg 44%
    08:00 +17°C° 0 mm 6 mps 746 mmHg 43%
    09:00 +18°C° 0 mm 7 mps 746 mmHg 43%
    10:00 +18°C° 0 mm 7 mps 746 mmHg 45%
    11:00 +18°C° 0 mm 7 mps 746 mmHg 47%
    12:00 +19°C° 0 mm 6 mps 746 mmHg 49%
    13:00 +17°C° 0.2 mm 6 mps 747 mmHg 57%
    14:00 +16°C° 0.2 mm 5 mps 747 mmHg 66%
    15:00 +15°C° 0.2 mm 4 mps 747 mmHg 74%
    16:00 +14°C° 0.2 mm 4 mps 747 mmHg 78%
    17:00 +14°C° 0.2 mm 3 mps 747 mmHg 83%
    18:00 +13°C° 0.2 mm 3 mps 747 mmHg 87%
    19:00 +13°C° 0 mm 2 mps 748 mmHg 88%
    20:00 +12°C° 0 mm 2 mps 748 mmHg 90%
    21:00 +10°C° 0 mm 2 mps 748 mmHg 91%
    22:00 +10°C° 0 mm 2 mps 748 mmHg 91%
    23:00 +9°C° 0 mm 2 mps 748 mmHg 91%

    Day after tomorrow, 25 September, Tuesday

    Time Temperature Precipitation Wind Pressure Humidity
    00:00 +9°C° 0 mm 2 mps 748 mmHg 91%
    01:00 +8°C° 0 mm 2 mps 748 mmHg 91%
    02:00 +8°C° 0 mm 2 mps 748 mmHg 91%
    03:00 +9°C° 0 mm 1 mps 748 mmHg 90%
    04:00 +8°C° 0 mm 2 mps 748 mmHg 89%
    05:00 +8°C° 0 mm 2 mps 748 mmHg 89%
    06:00 +8°C° 0 mm 2 mps 747 mmHg 88%
    07:00 +9°C° 0 mm 3 mps 747 mmHg 80%
    08:00 +11°C° 0 mm 4 mps 747 mmHg 73%
    09:00 +13°C° 0 mm 5 mps 747 mmHg 66%
    10:00 +14°C° 0 mm 6 mps 747 mmHg 59%
    11:00 +16°C° 0 mm 7 mps 746 mmHg 53%
    12:00 +17°C° 0 mm 7 mps 746 mmHg 47%
    13:00 +17°C° 0 mm 7 mps 746 mmHg 47%
    14:00 +17°C° 0 mm 7 mps 745 mmHg 47%
    15:00 +17°C° 0 mm 6 mps 745 mmHg 47%
    16:00 +17°C° 0.1 mm 6 mps 745 mmHg 50%
    17:00 +17°C° 0.1 mm 6 mps 745 mmHg 53%
    18:00 +16°C° 0.1 mm 6 mps 744 mmHg 55%
    19:00 +16°C° 0.1 mm 6 mps 745 mmHg 58%
    20:00 +16°C° 0.1 mm 6 mps 745 mmHg 61%
    21:00 +16°C° 0.1 mm 6 mps 745 mmHg 64%
    22:00 +14°C° 0.2 mm 6 mps 746 mmHg 68%
    23:00 +13°C° 0.2 mm 5 mps 746 mmHg 73%

    26 September, Wednesday

    Time Temperature Precipitation Wind Pressure Humidity
    00:00 +11°C° 0.2 mm 4 mps 747 mmHg 78%
    01:00 +11°C° 0.1 mm 4 mps 747 mmHg 79%
    02:00 +10°C° 0.1 mm 3 mps 748 mmHg 80%
    03:00 +10°C° 0.1 mm 3 mps 748 mmHg 81%
    04:00 +9°C° 0 mm 3 mps 748 mmHg 82%
    05:00 +9°C° 0 mm 3 mps 749 mmHg 82%
    06:00 +9°C° 0 mm 3 mps 749 mmHg 83%
    07:00 +9°C° 0.1 mm 3 mps 750 mmHg 80%
    08:00 +8°C° 0.1 mm 4 mps 750 mmHg 77%
    09:00 +10°C° 0.1 mm 4 mps 751 mmHg 74%
    10:00 +10°C° 0 mm 4 mps 751 mmHg 70%
    11:00 +11°C° 0 mm 4 mps 752 mmHg 67%
    12:00 +11°C° 0 mm 4 mps 752 mmHg 63%
    13:00 +11°C° 0 mm 4 mps 752 mmHg 61%
    14:00 +11°C° 0 mm 4 mps 752 mmHg 59%
    15:00 +12°C° 0 mm 4 mps 753 mmHg 58%
    16:00 +11°C° 0 mm 3 mps 753 mmHg 61%
    17:00 +10°C° 0 mm 3 mps 753 mmHg 64%
    18:00 +9°C° 0 mm 2 mps 753 mmHg 67%
    19:00 +9°C° 0 mm 2 mps 753 mmHg 68%
    20:00 +9°C° 0 mm 2 mps 754 mmHg 69%
    21:00 +8°C° 0 mm 2 mps 754 mmHg 70%
    22:00 +8°C° 0 mm 2 mps 754 mmHg 73%
    23:00 +7°C° 0 mm 2 mps 754 mmHg 76%

    27 September, Thursday

    Time Temperature Precipitation Wind Pressure Humidity
    00:00 +6°C° 0 mm 2 mps 754 mmHg 79%
    01:00 +6°C° 0 mm 2 mps 754 mmHg 81%
    02:00 +5°C° 0 mm 2 mps 754 mmHg 83%
    03:00 +5°C° 0 mm 2 mps 754 mmHg 85%
    04:00 +4°C° 0 mm 2 mps 754 mmHg 86%
    05:00 +4°C° 0 mm 2 mps 754 mmHg 88%
    06:00 +4°C° 0 mm 2 mps 754 mmHg 89%
    07:00 +5°C° 0 mm 2 mps 754 mmHg 83%
    08:00 +7°C° 0 mm 3 mps 754 mmHg 76%
    09:00 +8°C° 0 mm 3 mps 754 mmHg 70%
    10:00 +8°C° 0 mm 4 mps 754 mmHg 67%
    11:00 +8°C° 0 mm 4 mps 753 mmHg 64%
    12:00 +10°C° 0 mm 4 mps 753 mmHg 61%
    13:00 +11°C° 0 mm 4 mps 753 mmHg 58%
    14:00 +10°C° 0 mm 5 mps 752 mmHg 56%
    15:00 +12°C° 0 mm 5 mps 752 mmHg 53%
    16:00 +10°C° 0 mm 4 mps 751 mmHg 55%
    17:00 +8°C° 0 mm 4 mps 751 mmHg 57%
    18:00 +7°C° 0 mm 4 mps 750 mmHg 60%
    19:00 +7°C° 0 mm 4 mps 750 mmHg 58%
    20:00 +7°C° 0 mm 5 mps 749 mmHg 56%
    21:00 +7°C° 0 mm 5 mps 749 mmHg 55%
    22:00 +7°C° 0 mm 6 mps 748 mmHg 54%
    23:00 +7°C° 0 mm 6 mps 747 mmHg 54%

    28 September, Friday

    Time Temperature Precipitation Wind Pressure Humidity
    00:00 +8°C° 0 mm 7 mps 747 mmHg 53%
    01:00 +8°C° 0.1 mm 7 mps 746 mmHg 54%
    02:00 +8°C° 0.1 mm 7 mps 745 mmHg 54%
    03:00 +7°C° 0.1 mm 8 mps 745 mmHg 55%
    04:00 +7°C° 0.1 mm 8 mps 744 mmHg 57%
    05:00 +7°C° 0.1 mm 8 mps 744 mmHg 59%
    06:00 +6°C° 0.1 mm 9 mps 743 mmHg 61%
    07:00 +7°C° 0 mm 9 mps 743 mmHg 63%
    08:00 +8°C° 0 mm 9 mps 743 mmHg 64%
    09:00 +8°C° 0 mm 10 mps 743 mmHg 65%
    10:00 +9°C° 0 mm 10 mps 743 mmHg 60%
    11:00 +11°C° 0 mm 10 mps 744 mmHg 56%
    12:00 +11°C° 0 mm 10 mps 744 mmHg 51%
    13:00 +11°C° 0 mm 10 mps 745 mmHg 52%
    14:00 +10°C° 0 mm 9 mps 745 mmHg 53%
    15:00 +10°C° 0 mm 9 mps 746 mmHg 54%
    16:00 +9°C° 0 mm 7 mps 747 mmHg 57%
    17:00 +8°C° 0 mm 6 mps 747 mmHg 59%
    18:00 +7°C° 0 mm 5 mps 748 mmHg 61%
    19:00 +7°C° 0 mm 4 mps 748 mmHg 63%
    20:00 +6°C° 0 mm 4 mps 749 mmHg 65%
    21:00 +7°C° 0 mm 3 mps 749 mmHg 67%
    22:00 +7°C° 0 mm 3 mps 749 mmHg 67%
    23:00 +7°C° 0 mm 3 mps 749 mmHg 68%
    Show more